Date String (YYYY-MM-DD hh:mm:ss) UTC,Instrument flags,Ambient pressure (hPa),Sample flow (lpm),Bypass flow (lpm),Sample temperature (°C),Ambient temperature (°C),ASC tube jacket temperature (°C),LED temperature (°C),Box temperature (°C),Sample RH (%),Span deviation,Mass concentration (μg/m³),Mass concentration (μg/m³),Mass concentration (μg/m³)
DateTimeUTC,F1_M11,P_M11,Q1_M11,Q2_M11,T1_M11,T2_M11,T3_M11,T4_M11,T5_M11,U1_M11,ZSPAN_M11,X0_M11,X2_M11,X1_M11
2022-07-03 23:00:00,,0826.0,5.00,0.00,29.1,27.9,00.0,37.8,31.1,29.1,0000.0,0007.92,0003.37,0002.60
2022-07-03 23:01:00,,0825.9,5.00,0.00,29.1,28.1,00.0,37.8,31.2,29.3,0000.0,0007.84,0003.32,0002.57
2022-07-03 23:02:00,,0825.9,5.00,0.00,29.2,28.2,00.0,37.9,31.2,29.4,0000.0,0007.88,0003.29,0002.55
2022-07-03 23:03:00,,0825.9,5.00,0.00,29.2,28.2,00.0,37.9,31.2,29.5,0000.0,0007.82,0003.24,0002.52
2022-07-03 23:04:00,,0825.8,5.01,0.00,29.2,27.7,00.0,37.8,31.2,29.5,0000.0,0007.53,0003.20,0002.51
2022-07-03 23:05:00,,0826.0,5.00,0.00,29.2,27.0,00.0,37.8,31.0,30.1,0000.0,0007.45,0003.21,0002.52
2022-07-03 23:06:00,,0826.0,5.00,0.00,29.1,26.7,00.0,37.8,30.9,30.0,0000.0,0007.54,0003.25,0002.53
2022-07-03 23:07:00,,0826.0,4.99,0.00,29.1,26.7,00.0,37.8,30.8,30.5,0000.0,0007.51,0003.26,0002.55
2022-07-03 23:08:00,,0825.7,4.99,0.00,29.0,26.8,00.0,37.8,30.8,30.4,0000.0,0007.41,0003.23,0002.56
2022-07-03 23:09:00,,0825.7,4.99,0.00,29.0,27.0,00.0,37.8,30.8,30.6,0000.0,0007.50,0003.24,0002.56
2022-07-03 23:10:00,,0826.0,5.00,0.00,29.0,27.2,00.0,37.8,30.9,30.4,0000.0,0007.12,0003.22,0002.55
2022-07-03 23:11:00,,0825.7,5.01,0.00,29.0,27.4,00.0,37.8,30.9,30.2,0000.0,0005.67,0003.23,0002.56
2022-07-03 23:12:00,,0825.7,5.01,0.00,29.0,27.6,00.0,37.8,31.0,29.9,0000.0,0005.54,0003.27,0002.57
2022-07-03 23:13:00,,0825.7,5.00,0.00,29.0,27.7,00.0,37.8,31.0,30.1,0000.0,0005.40,0003.28,0002.57
2022-07-03 23:14:00,,0825.7,5.00,0.00,29.1,27.9,00.0,37.8,31.1,30.4,0000.0,0005.61,0003.32,0002.58
2022-07-03 23:15:00,,0825.7,5.00,0.00,29.1,28.0,00.0,37.8,31.1,30.6,0000.0,0005.97,0003.34,0002.57
2022-07-03 23:16:00,,0825.7,4.99,0.00,29.1,28.1,00.0,37.8,31.2,30.3,0000.0,0006.10,0003.35,0002.56
2022-07-03 23:17:00,,0825.7,5.00,0.00,29.2,28.2,00.0,37.9,31.2,29.8,0000.0,0006.01,0003.32,0002.52
2022-07-03 23:18:00,,0825.7,5.00,0.00,29.2,28.3,00.0,37.9,31.3,29.6,0000.0,0005.94,0003.29,0002.51
2022-07-03 23:19:00,,0825.7,5.00,0.00,29.2,27.8,00.0,37.8,31.2,29.9,0000.0,0005.85,0003.26,0002.49
2022-07-03 23:20:00,,0825.7,5.01,0.00,29.2,27.0,00.0,37.8,31.0,30.0,0000.0,0005.60,0003.22,0002.47
2022-07-03 23:21:00,,0825.7,5.01,0.00,29.1,26.7,00.0,37.8,30.9,30.1,0000.0,0005.47,0003.19,0002.45
2022-07-03 23:22:00,,0825.7,5.00,0.00,29.1,26.7,00.0,37.8,30.8,30.3,0000.0,0005.40,0003.16,0002.40
2022-07-03 23:23:00,,0825.7,5.00,0.00,29.0,26.9,00.0,37.8,30.8,30.7,0000.0,0005.44,0003.15,0002.38
2022-07-03 23:24:00,,0825.7,5.00,0.00,29.0,27.0,00.0,37.8,30.9,31.1,0000.0,0005.77,0003.19,0002.35
2022-07-03 23:25:00,,0825.7,4.99,0.00,29.0,27.2,00.0,37.8,30.9,31.2,0000.0,0005.59,0003.14,0002.32
2022-07-03 23:26:00,,0825.7,5.00,0.00,29.0,27.4,00.0,37.8,31.0,30.5,0000.0,0005.30,0003.08,0002.30
2022-07-03 23:27:00,,0825.8,4.99,0.00,29.0,27.6,00.0,37.8,31.0,30.0,0000.0,0005.32,0003.03,0002.27
2022-07-03 23:28:00,,0825.6,5.00,0.00,29.1,27.8,00.0,37.8,31.1,30.1,0000.0,0005.24,0003.00,0002.25
2022-07-03 23:29:00,,0825.6,4.99,0.00,29.1,27.9,00.0,37.8,31.1,30.3,0000.0,0005.99,0003.01,0002.23
2022-07-03 23:30:00,,0825.6,5.00,0.00,29.1,28.0,00.0,37.8,31.1,29.6,0000.0,0006.25,0002.99,0002.20
2022-07-03 23:31:00,,0825.6,5.02,0.00,29.2,28.2,00.0,37.9,31.2,29.4,0000.0,0006.18,0002.95,0002.19
2022-07-03 23:32:00,,0825.6,4.99,0.00,29.2,28.3,00.0,37.9,31.2,30.0,0000.0,0006.29,0002.98,0002.18
2022-07-03 23:33:00,,0825.5,5.00,0.00,29.3,28.4,00.0,37.9,31.3,29.4,0000.0,0006.33,0003.01,0002.19
2022-07-03 23:34:00,,0825.5,5.00,0.00,29.3,28.1,00.0,37.9,31.3,29.3,0000.0,0006.16,0002.97,0002.18
2022-07-03 23:35:00,,0825.5,5.00,0.00,29.3,27.4,00.0,37.9,31.1,29.2,0000.0,0005.78,0002.86,0002.15
2022-07-03 23:36:00,,0825.5,5.02,0.00,29.2,26.9,00.0,37.8,31.0,29.2,0000.0,0005.64,0002.82,0002.13
2022-07-03 23:37:00,,0825.5,4.99,0.00,29.1,26.8,00.0,37.8,30.9,28.6,0000.0,0005.38,0002.76,0002.11
2022-07-03 23:38:00,,0825.5,5.00,0.00,29.1,26.9,00.0,37.8,30.9,28.5,0000.0,0005.46,0002.72,0002.09
2022-07-03 23:39:00,,0825.5,5.00,0.00,29.0,27.0,00.0,37.8,30.9,28.7,0000.0,0005.62,0002.69,0002.09
2022-07-03 23:40:00,,0825.4,4.99,0.00,29.0,27.2,00.0,37.8,30.9,28.6,0000.0,0004.89,0002.66,0002.07
2022-07-03 23:41:00,,0825.5,5.00,0.00,29.0,27.4,00.0,37.8,31.0,28.7,0000.0,0004.88,0002.65,0002.05
2022-07-03 23:42:00,,0825.5,5.01,0.00,29.1,27.6,00.0,37.8,31.0,28.7,0000.0,0005.24,0002.62,0002.02
2022-07-03 23:43:00,,0825.5,5.00,0.00,29.1,27.7,00.0,37.8,31.1,28.6,0000.0,0005.14,0002.56,0001.98
2022-07-03 23:44:00,,0825.5,5.00,0.00,29.1,27.9,00.0,37.9,31.1,28.4,0000.0,0005.26,0002.52,0001.94
2022-07-03 23:45:00,,0825.4,5.00,0.00,29.2,28.0,00.0,37.9,31.2,28.6,0000.0,0005.57,0002.50,0001.92
2022-07-03 23:46:00,,0825.5,5.00,0.00,29.2,28.2,00.0,37.9,31.2,28.4,0000.0,0005.58,0002.47,0001.91
2022-07-03 23:47:00,,0825.4,5.00,0.00,29.2,28.3,00.0,37.9,31.3,28.2,0000.0,0005.71,0002.44,0001.88
2022-07-03 23:48:00,,0825.6,5.00,0.00,29.3,28.4,00.0,37.9,31.3,28.3,0000.0,0006.85,0002.46,0001.88
2022-07-03 23:49:00,,0825.5,4.99,0.00,29.3,28.4,00.0,38.0,31.3,28.5,0000.0,0006.73,0002.45,0001.89
2022-07-03 23:50:00,,0825.6,5.00,0.00,29.3,27.8,00.0,37.9,31.3,28.8,0000.0,0006.64,0002.48,0001.89
2022-07-03 23:51:00,,0825.5,5.00,0.00,29.3,27.1,00.0,37.9,31.1,28.8,0000.0,0006.84,0002.52,0001.90
2022-07-03 23:52:00,,0825.4,5.00,0.00,29.2,26.8,00.0,37.9,31.0,27.9,0000.0,0006.60,0002.50,0001.90
2022-07-03 23:53:00,,0825.5,5.01,0.00,29.1,26.8,00.0,37.9,30.9,27.4,0000.0,0006.25,0002.52,0001.89
2022-07-03 23:54:00,,0825.5,5.00,0.00,29.1,27.0,00.0,37.9,30.9,28.0,0000.0,0006.18,0002.52,0001.89
2022-07-03 23:55:00,,0825.5,5.00,0.00,29.1,27.1,00.0,37.9,30.9,28.4,0000.0,0006.09,0002.54,0001.90
2022-07-03 23:56:00,,0825.5,5.00,0.00,29.1,27.3,00.0,37.9,31.0,27.8,0000.0,0005.88,0002.59,0001.89
2022-07-03 23:57:00,,0825.5,5.00,0.00,29.1,27.5,00.0,37.9,31.0,27.6,0000.0,0005.91,0002.62,0001.89
2022-07-03 23:58:00,,0825.4,4.99,0.00,29.1,27.7,00.0,37.9,31.0,27.7,0000.0,0005.76,0002.63,0001.89
2022-07-03 23:59:00,,0825.5,5.01,0.00,29.1,27.8,00.0,37.9,31.1,27.6,0000.0,0004.82,0002.61,0001.87
